Location: Gorze? G�rny
(49.8500°N, 19.5000°E)
Time: 05:20:02
(UTC+00:00)

Cosmos 2344 - Pass Details

Date: 13 May 2021
Orbit: 1239 x 3003 km, 63.3° (Epoch: 20 June)

Event Time Altitude Azimuth Distance (km) Brightness Sun altitude
Rises 23:08:18 0° 317° (NW) 4,566 7.1 -21.2°
Reaches altitude 10° 23:10:57 10° 313° (NW) 3,727 6.5 -21.1°
Maximum altitude 23:20:04 60° 237° (WSW) 2,120 4.4 -20.9°
Enters shadow 23:28:39 22° 168° (SSE) 3,884 5.5 -20.6°
